G3ZSS Weather Reports


Display with metric or nautical units.
time (UTC)temp
F
wind
direction
speed
MPH
gust
MPH
rain 1hr
in
rain 24hr
in
rain mn
in
humidity
%
barometer
mb
20260507074004 55 101 0.0 5.0 0.00 0.00 0.00 78 1015.9
20260507073004 55 138 1.0 3.0 0.00 0.00 0.00 79 1015.8
20260507072003 55 57 0.0 2.0 0.00 0.00 0.00 82 1015.8
20260507070006 51 325 0.0 0.0 0.00 0.00 0.00 91 1015.7
20260507065004 49 325 0.0 0.0 0.00 0.00 0.00 92 1015.6
20260507064003 47 325 0.0 2.0 0.00 0.00 0.00 91 1015.7
20260507062004 45 325 0.0 0.0 0.00 0.00 0.00 92 1015.6
20260507061003 44 325 0.0 0.0 0.00 0.00 0.00 92 1015.5
20260507060004 43 325 0.0 0.0 0.00 0.00 0.00 92 1015.5
20260507055003 42 325 0.0 2.0 0.00 0.00 0.00 91 1015.4
20260507054004 42 253 0.0 2.0 0.00 0.00 0.00 91 1015.4
20260507053005 41 36 1.0 3.0 0.00 0.00 0.00 91 1015.3
20260507052004 41 298 1.0 2.0 0.00 0.00 0.00 91 1015.2
20260507051003 41 329 1.0 2.0 0.00 0.00 0.00 91 1015.2
20260507050004 41 301 0.0 3.0 0.00 0.00 0.00 90 1015.1
20260507045004 41 311 2.0 3.0 0.00 0.00 0.00 90 1015.1
20260507044003 41 311 2.0 3.0 0.00 0.00 0.00 90 1015.1
20260507043004 41 306 2.0 3.0 0.00 0.00 0.00 90 1015.1
20260507042004 41 320 2.0 5.0 0.00 0.00 0.00 90 1015.0
20260507041003 41 307 2.0 3.0 0.00 0.00 0.00 90 1015.1
20260507035003 41 320 2.0 3.0 0.00 0.00 0.00 90 1015.1
20260507034004 41 321 2.0 3.0 0.00 0.00 0.00 90 1015.0
20260507033004 41 306 2.0 3.0 0.00 0.00 0.00 90 1015.0
20260507032003 42 303 2.0 3.0 0.00 0.00 0.00 90 1014.9
20260507031004 42 300 2.0 3.0 0.00 0.00 0.00 89 1014.9
20260507030004 42 317 2.0 3.0 0.00 0.00 0.00 89 1014.9
20260507025003 42 318 2.0 3.0 0.00 0.00 0.00 89 1014.9
20260507024004 42 308 1.0 2.0 0.00 0.00 0.00 89 1014.8
20260507023004 42 309 2.0 3.0 0.00 0.00 0.00 89 1014.8
20260507022003 42 311 2.0 3.0 0.00 0.00 0.00 89 1014.8
20260507021004 42 304 1.0 3.0 0.00 0.00 0.00 88 1014.7
20260507020004 42 302 2.0 3.0 0.00 0.00 0.00 88 1014.7
20260507015003 42 307 2.0 3.0 0.00 0.00 0.00 88 1014.6
20260507013003 42 288 2.0 3.0 0.00 0.00 0.00 88 1014.6
20260507012004 42 295 2.0 3.0 0.00 0.00 0.00 88 1014.7
20260507011004 43 311 2.0 3.0 0.00 0.00 0.00 87 1014.7
20260507010004 43 303 1.0 3.0 0.00 0.00 0.00 87 1014.8
20260507005004 43 298 1.0 3.0 0.00 0.00 0.00 87 1014.7
20260507004003 44 309 1.0 3.0 0.00 0.00 0.00 86 1014.7
20260507003004 44 309 1.0 3.0 0.00 0.00 0.00 86 1014.7
20260507002003 44 300 1.0 3.0 0.00 0.00 0.00 85 1014.8
20260507001004 45 320 1.0 3.0 0.00 0.00 0.00 85 1014.8
20260507000004 45 320 1.0 3.0 0.00 0.00 0.00 85 1014.8
20260506234004 46 316 1.0 2.0 0.00 0.00 0.00 84 1014.7
20260506233004 46 316 1.0 3.0 0.00 0.00 0.00 83 1014.7
20260506232004 46 314 1.0 3.0 0.00 0.00 0.00 82 1014.6
20260506231004 47 300 1.0 2.0 0.00 0.00 0.00 81 1014.5
20260506230003 47 300 1.0 2.0 0.00 0.00 0.00 81 1014.5
20260506224004 48 300 1.0 3.0 0.00 0.00 0.00 79 1014.5
20260506221004 50 300 0.0 0.0 0.00 0.00 0.00 76 1014.4
20260506220003 50 300 0.0 0.0 0.00 0.00 0.00 76 1014.2
20260506215004 51 300 0.0 2.0 0.00 0.00 0.00 76 1014.2
20260506213004 52 300 0.0 0.0 0.00 0.00 0.00 76 1014.3
20260506212003 52 300 0.0 0.0 0.00 0.00 0.00 76 1014.2
20260506211004 52 300 0.0 0.0 0.00 0.00 0.00 76 1014.2
20260506210004 52 300 0.0 0.0 0.00 0.00 0.00 74 1014.1
20260506205003 53 300 0.0 0.0 0.00 0.00 0.00 73 1014.1
20260506204004 53 300 0.0 0.0 0.00 0.00 0.00 72 1014.0
20260506203003 53 300 0.0 0.0 0.00 0.00 0.00 71 1013.9
20260506202004 54 300 0.0 0.0 0.00 0.00 0.00 71 1013.9
20260506201003 54 300 0.0 0.0 0.00 0.00 0.00 71 1013.8
20260506200004 54 300 0.0 0.0 0.00 0.00 0.00 70 1013.7
20260506195003 54 300 0.0 0.0 0.00 0.00 0.00 69 1013.6
20260506194004 55 300 0.0 0.0 0.00 0.00 0.00 68 1013.5
20260506193004 55 300 0.0 0.0 0.00 0.00 0.00 67 1013.4
20260506192004 55 300 0.0 0.0 0.00 0.00 0.00 66 1013.4
20260506191003 55 300 0.0 0.0 0.00 0.00 0.00 66 1013.3
20260506184004 56 300 0.0 1.0 0.00 0.00 0.00 65 1013.1
20260506180005 57 300 0.0 5.0 0.00 0.00 0.00 59 1012.7
20260506174004 58 289 2.0 3.0 0.00 0.00 0.00 59 1012.5
20260506172004 58 317 1.0 6.0 0.00 0.00 0.00 58 1012.5
20260506171003 59 302 2.0 6.0 0.00 0.00 0.00 58 1012.4
20260506165003 59 317 3.0 8.0 0.00 0.00 0.00 54 1012.4
20260506164004 59 293 2.0 6.0 0.00 0.00 0.00 53 1012.3
20260506163004 59 316 3.0 8.0 0.00 0.00 0.00 53 1012.3
20260506162004 59 317 4.0 6.0 0.00 0.00 0.00 52 1012.3
20260506161003 59 308 3.0 7.0 0.00 0.00 0.00 52 1012.3
20260506160004 59 296 3.0 7.0 0.00 0.00 0.00 51 1012.3
20260506155004 59 293 3.0 9.0 0.00 0.00 0.00 52 1012.4
20260506154004 59 301 2.0 5.0 0.00 0.00 0.00 53 1012.3
20260506152004 60 314 3.0 9.0 0.00 0.00 0.00 50 1012.3
20260506151003 60 312 3.0 8.0 0.00 0.00 0.00 49 1012.3
20260506150004 60 305 3.0 7.0 0.00 0.00 0.00 50 1012.4
20260506145003 60 352 3.0 5.0 0.00 0.00 0.00 51 1012.4
20260506144004 60 289 3.0 9.0 0.00 0.00 0.00 50 1012.4
20260506143003 60 309 5.0 9.0 0.00 0.00 0.00 49 1012.4
20260506142004 60 298 5.0 10.0 0.00 0.00 0.00 48 1012.4
20260506140003 61 313 3.0 9.0 0.00 0.00 0.00 48 1012.3
20260506135004 61 306 4.0 9.0 0.00 0.00 0.00 49 1012.3
20260506134004 61 315 3.0 8.0 0.00 0.00 0.00 50 1012.5
20260506132003 62 306 2.0 10.0 0.00 0.00 0.00 51 1012.4
20260506131004 62 313 2.0 8.0 0.00 0.00 0.00 52 1012.4
20260506130003 62 292 3.0 9.0 0.00 0.00 0.00 51 1012.4
20260506125004 62 290 4.0 10.0 0.00 0.00 0.00 49 1012.4
20260506124004 62 298 4.0 9.0 0.00 0.00 0.00 50 1012.4
20260506123004 62 296 6.0 15.0 0.00 0.00 0.00 50 1012.5
20260506122004 61 280 3.0 10.0 0.00 0.00 0.00 49 1012.5
20260506121003 61 304 5.0 10.0 0.00 0.00 0.00 50 1012.6
20260506120004 61 300 3.0 9.0 0.00 0.00 0.00 50 1012.6
20260506115004 61 277 6.0 12.0 0.00 0.00 0.00 50 1012.6
20260506114003 60 305 4.0 9.0 0.00 0.00 0.00 52 1012.6
20260506113004 60 305 5.0 10.0 0.00 0.00 0.00 51 1012.7
20260506112004 61 314 4.0 9.0 0.00 0.00 0.00 51 1012.7
20260506111003 61 318 3.0 8.0 0.00 0.00 0.00 52 1012.8
20260506110003 60 293 2.0 9.0 0.00 0.00 0.00 53 1012.7
20260506105004 60 342 2.0 12.0 0.00 0.00 0.00 56 1012.7
20260506104003 60 298 2.0 9.0 0.00 0.00 0.00 57 1012.8
20260506103004 59 298 5.0 9.0 0.00 0.00 0.00 55 1012.7
20260506102004 59 285 4.0 12.0 0.00 0.00 0.00 55 1012.8
20260506101003 60 304 2.0 7.0 0.00 0.00 0.00 58 1012.8
20260506100004 59 294 2.0 8.0 0.00 0.00 0.00 60 1012.9
20260506095003 58 296 3.0 7.0 0.00 0.00 0.00 59 1012.9
20260506093004 56 292 3.0 8.0 0.00 0.00 0.00 65 1013.0
20260506092003 57 316 2.0 6.0 0.00 0.00 0.00 64 1013.0
20260506090003 57 305 3.0 7.0 0.00 0.00 0.00 64 1013.0
20260506085004 56 305 2.0 6.0 0.00 0.00 0.00 67 1013.0
20260506083003 54 303 3.0 8.0 0.00 0.00 0.00 70 1012.9
20260506081004 52 319 7.0 13.0 0.00 0.00 0.00 71 1012.8